Location: Veytaux
(46.4185°N, 6.9320°E)
Time: 03:45:06
(UTC+00:00)

DEBRIS - Pass Details

Date: 26 September 2022
Orbit: 310 x 15046 km, 49.5° (Epoch: 28 November)

Event Time Altitude Azimuth Distance (km) Brightness Sun altitude
Rises 00:45:03 0° 98° (E) 17,250 10.6 -41.4°
Reaches altitude 10° 01:24:55 10° 81° (E) 19,040 11.0 -37.6°
Maximum altitude 02:01:23 13° 67° (ENE) 18,859 11.2 -33.2°
Drops below altitude 10° 02:32:48 10° 54° (NE) 17,445 11.3 -28.9°
Sets 02:59:37 0° 41° (NE) 15,519 11.2 -24.9°
